DW8006 Weather Reports


time (UTC)temp
C
wind
direction
speed
KPH
gust
KPH
rain 1hr
cm
rain 24hr
cm
rain mn
cm
humidity
%
barometer
mb
20190419050525 10 45 4.8 6.4 0.00 0.00 0.00 60 1026.8
20190419045515 9 45 3.2 6.4 0.00 0.00 0.00 61 1026.7
20190419044516 10 0.0 1.6 0.00 0.00 0.00 59 1026.6
20190419043516 10 0.0 1.6 0.00 0.00 0.00 57 1026.5
20190419042516 10 67 1.6 3.2 0.00 0.00 0.00 56 1026.5
20190419041516 10 45 1.6 6.4 0.00 0.00 0.00 57 1026.5
20190419040519 10 67 1.6 3.2 0.00 0.00 0.00 55 1026.4
20190419035515 11 112 1.6 4.8 0.00 0.00 0.00 55 1026.2
20190419034516 11 90 1.6 4.8 0.00 0.00 0.00 54 1026.2
20190419033516 11 90 1.6 4.8 0.00 0.00 0.00 53 1026.2
20190419032515 11 90 1.6 6.4 0.00 0.00 0.00 53 1026.2
20190419031516 11 90 1.6 9.7 0.00 0.00 0.00 53 1026.0
20190419030516 11 90 3.2 6.4 0.00 0.00 0.00 53 1026.0
20190419025516 11 90 1.6 4.8 0.00 0.00 0.00 52 1026.0
20190419024516 11 90 3.2 6.4 0.00 0.00 0.00 52 1026.0
20190419023516 11 90 3.2 6.4 0.00 0.00 0.00 52 1025.9
20190419022515 11 90 3.2 4.8 0.00 0.00 0.00 51 1025.8
20190419021516 12 90 3.2 4.8 0.00 0.00 0.00 52 1025.8
20190419020516 12 90 3.2 6.4 0.00 0.00 0.00 51 1025.7
20190419015516 12 90 3.2 8.0 0.00 0.00 0.00 51 1025.8
20190419014516 12 90 3.2 6.4 0.00 0.00 0.00 51 1025.7
20190419013515 11 112 3.2 11.3 0.00 0.00 0.00 52 1025.7
20190419012515 12 90 4.8 11.3 0.00 0.00 0.00 51 1025.7
20190419011516 12 90 3.2 9.7 0.00 0.00 0.00 51 1025.5
20190419010516 12 90 4.8 11.3 0.00 0.00 0.00 49 1025.5
20190419005516 12 90 4.8 11.3 0.00 0.00 0.00 49 1025.5
20190419004516 12 90 4.8 17.7 0.00 0.00 0.00 49 1025.4
20190419003516 12 90 4.8 11.3 0.00 0.00 0.00 49 1025.4
20190419002516 12 90 3.2 12.9 0.00 0.00 0.00 50 1025.4
20190419001516 12 90 3.2 8.0 0.00 0.00 0.00 50 1025.4
20190419000516 12 90 4.8 14.5 0.00 0.00 0.00 51 1025.5
20190418235515 12 112 6.4 11.3 0.00 0.00 0.00 50 1025.4
20190418234515 13 90 4.8 12.9 0.00 0.00 0.00 48 1025.5
20190418233516 13 90 4.8 12.9 0.00 0.00 0.00 48 1025.3
20190418232516 13 90 4.8 9.7 0.00 0.00 0.00 47 1025.6
20190418231516 13 90 4.8 9.7 0.00 0.00 0.00 47 1025.6
20190418230516 13 90 4.8 9.7 0.00 0.00 0.00 47 1025.6
20190418225516 13 90 4.8 12.9 0.00 0.00 0.00 47 1025.6
20190418224515 13 90 4.8 11.3 0.00 0.00 0.00 47 1025.6
20190418223516 13 90 4.8 12.9 0.00 0.00 0.00 47 1025.5
20190418222515 13 90 4.8 16.1 0.00 0.00 0.00 47 1025.4
20190418221516 13 90 4.8 14.5 0.00 0.00 0.00 47 1025.4
20190418220516 13 90 4.8 11.3 0.00 0.00 0.00 46 1025.4
20190418215516 13 90 3.2 11.3 0.00 0.00 0.00 47 1025.3
20190418214516 13 90 4.8 14.5 0.00 0.00 0.00 46 1025.3
20190418213515 14 90 3.2 9.7 0.00 0.00 0.00 46 1025.2
20190418212515 14 90 4.8 11.3 0.00 0.00 0.00 46 1025.2
20190418211515 14 90 4.8 11.3 0.00 0.00 0.00 46 1025.1
20190418210515 14 90 3.2 9.7 0.00 0.00 0.00 46 1025.0
20190418205515 15 90 3.2 8.0 0.00 0.00 0.00 45 1025.0
20190418204515 15 90 4.8 12.9 0.00 0.00 0.00 45 1024.9
20190418203516 15 90 4.8 9.7 0.00 0.00 0.00 45 1024.9
20190418202516 15 90 4.8 11.3 0.00 0.00 0.00 45 1024.7
20190418201515 15 90 3.2 11.3 0.00 0.00 0.00 45 1024.7
20190418200515 15 90 4.8 8.0 0.00 0.00 0.00 45 1024.6
20190418195515 15 90 3.2 11.3 0.00 0.00 0.00 45 1024.5
20190418194516 15 90 4.8 14.5 0.00 0.00 0.00 44 1024.5
20190418193516 15 67 3.2 11.3 0.00 0.00 0.00 43 1024.4
20190418192516 15 112 1.6 4.8 0.00 0.00 0.00 43 1024.3
20190418191524 16 45 3.2 9.7 0.00 0.00 0.00 41 1024.3
20190418190516 16 90 1.6 3.2 0.00 0.00 0.00 41 1024.2
20190418185516 16 90 1.6 4.8 0.00 0.00 0.00 39 1024.1
20190418184516 16 90 1.6 4.8 0.00 0.00 0.00 39 1024.0
20190418183515 17 90 3.2 4.8 0.00 0.00 0.00 38 1023.9
20190418182515 17 90 3.2 8.0 0.00 0.00 0.00 38 1023.9
20190418181515 17 90 3.2 11.3 0.00 0.00 0.00 37 1023.7
20190418180515 17 90 3.2 11.3 0.00 0.00 0.00 36 1023.6
20190418175516 17 90 3.2 8.0 0.00 0.00 0.00 37 1023.5
20190418174515 17 67 3.2 12.9 0.00 0.00 0.00 36 1023.5
20190418173516 17 90 8.0 22.5 0.00 0.00 0.00 36 1023.4
20190418172515 18 90 4.8 9.7 0.00 0.00 0.00 37 1023.3
20190418171515 18 90 6.4 12.9 0.00 0.00 0.00 38 1023.2
20190418170516 18 90 4.8 12.9 0.00 0.00 0.00 37 1023.2
20190418165515 18 90 6.4 14.5 0.00 0.00 0.00 36 1023.2
20190418164516 18 90 6.4 20.9 0.00 0.00 0.00 35 1023.2
20190418163515 18 90 8.0 17.7 0.00 0.00 0.00 36 1023.2
20190418162515 18 90 8.0 19.3 0.00 0.00 0.00 35 1023.2
20190418161518 18 112 8.0 20.9 0.00 0.00 0.00 36 1023.2
20190418160516 18 90 9.7 25.7 0.00 0.00 0.00 36 1023.3
20190418155515 18 90 8.0 20.9 0.00 0.00 0.00 37 1023.2
20190418154515 18 90 6.4 16.1 0.00 0.00 0.00 38 1023.2
20190418153516 18 90 12.9 22.5 0.00 0.00 0.00 36 1023.1
20190418152515 18 90 11.3 20.9 0.00 0.00 0.00 36 1023.2
20190418151516 18 90 8.0 24.1 0.00 0.00 0.00 39 1023.2
20190418150515 18 112 14.5 24.1 0.00 0.00 0.00 39 1023.3
20190418145516 18 90 12.9 25.7 0.00 0.00 0.00 38 1023.2
20190418144515 18 112 16.1 30.6 0.00 0.00 0.00 38 1023.2
20190418143515 18 112 14.5 32.2 0.00 0.00 0.00 38 1023.2
20190418142520 18 112 14.5 27.4 0.00 0.00 0.00 40 1023.1
20190418141516 18 112 17.7 29.0 0.00 0.00 0.00 37 1023.2
20190418140516 18 90 11.3 24.1 0.00 0.00 0.00 39 1023.2
20190418135515 18 112 17.7 27.4 0.00 0.00 0.00 39 1023.3
20190418134516 18 135 16.1 27.4 0.00 0.00 0.00 40 1023.3
20190418133516 18 90 9.7 25.7 0.00 0.00 0.00 42 1023.4
20190418132515 18 112 12.9 32.2 0.00 0.00 0.00 39 1023.4
20190418131515 18 90 9.7 17.7 0.00 0.00 0.00 43 1023.4
20190418130515 18 112 11.3 25.7 0.00 0.00 0.00 43 1023.7
20190418125516 18 67 9.7 25.7 0.00 0.00 0.00 42 1023.7
20190418124515 18 112 8.0 16.1 0.00 0.00 0.00 43 1023.9
20190418123515 17 135 12.9 25.7 0.00 0.00 0.00 41 1023.8
20190418122515 17 90 8.0 24.1 0.00 0.00 0.00 43 1023.9
20190418121515 17 67 11.3 25.7 0.00 0.00 0.00 44 1024.0
20190418120516 17 90 9.7 22.5 0.00 0.00 0.00 44 1024.1
20190418115516 17 90 8.0 20.9 0.00 0.00 0.00 46 1024.1
20190418114516 17 135 12.9 29.0 0.00 0.00 0.00 44 1024.2
20190418113516 17 90 6.4 20.9 0.00 0.00 0.00 46 1024.3
20190418112516 17 90 8.0 16.1 0.00 0.00 0.00 47 1024.4
20190418111515 16 112 12.9 29.0 0.00 0.00 0.00 47 1024.3
20190418110516 16 112 12.9 24.1 0.00 0.00 0.00 46 1024.4
20190418105516 16 90 8.0 17.7 0.00 0.00 0.00 48 1024.3
20190418104515 16 112 12.9 25.7 0.00 0.00 0.00 49 1024.4
20190418103516 16 90 4.8 12.9 0.00 0.00 0.00 50 1024.5
20190418102516 16 90 6.4 12.9 0.00 0.00 0.00 49 1024.6
20190418101516 16 90 6.4 14.5 0.00 0.00 0.00 52 1024.5
20190418100516 16 90 6.4 16.1 0.00 0.00 0.00 51 1024.5
20190418095516 16 90 4.8 12.9 0.00 0.00 0.00 48 1024.5
20190418094516 15 90 6.4 16.1 0.00 0.00 0.00 54 1024.6
20190418093516 15 90 6.4 14.5 0.00 0.00 0.00 53 1024.6
20190418092517 15 90 6.4 16.1 0.00 0.00 0.00 53 1024.6
20190418090517 15 67 9.7 24.1 0.00 0.00 0.00 52 1024.6
20190418085516 15 90 8.0 20.9 0.00 0.00 0.00 53 1024.7
20190418084516 15 90 6.4 14.5 0.00 0.00 0.00 55 1024.7
20190418083516 15 112 9.7 25.7 0.00 0.00 0.00 53 1024.7
20190418082516 15 90 4.8 20.9 0.00 0.00 0.00 54 1024.6
20190418081516 14 135 8.0 17.7 0.00 0.00 0.00 58 1024.6
20190418080516 14 112 6.4 12.9 0.00 0.00 0.00 56 1024.5
20190418075516 14 90 4.8 12.9 0.00 0.00 0.00 55 1024.6
20190418074516 13 90 6.4 16.1 0.00 0.00 0.00 59 1024.6
20190418073516 13 90 6.4 14.5 0.00 0.00 0.00 58 1024.6
20190418072516 13 112 6.4 19.3 0.00 0.00 0.00 58 1024.6
20190418071516 13 112 8.0 17.7 0.00 0.00 0.00 57 1024.4
20190418070516 12 90 6.4 17.7 0.00 0.00 0.00 60 1024.5
20190418065516 12 90 4.8 12.9 0.00 0.00 0.00 61 1024.5
20190418064516 12 90 6.4 17.7 0.00 0.00 0.00 62 1024.4
20190418063516 11 90 6.4 17.7 0.00 0.00 0.00 61 1024.4
20190418062516 11 90 8.0 25.7 0.00 0.00 0.00 62 1024.2
20190418061516 11 90 6.4 9.7 0.00 0.00 0.00 62 1024.2
20190418060516 11 90 8.0 20.9 0.00 0.00 0.00 63 1024.1
20190418055516 10 90 6.4 12.9 0.00 0.00 0.00 63 1024.1
20190418054516 10 90 6.4 9.7 0.00 0.03 0.00 64 1024.0
20190418053516 10 90 6.4 14.5 0.00 0.05 0.00 65 1023.9
20190418052516 10 90 4.8 11.3 0.00 0.08 0.00 65 1023.9
20190418051516 10 90 3.2 8.0 0.00 0.08 0.00 65 1024.0